Lid_Strength_Index
1 1 0 1 1 1 1 2 2 2 2 2 2 2 2 2 2 1 2 2 2 0 1 3 3 3 3 3 2 2 7 9 8 7 6 4 5 4 4 5 5 4 4 2 2
2 1 1 1 1 1 1 2 2 2 2 2 2 2 2 2 2 2 0 0 1 0 4 5 5 4 4 4 3 4 7 7 5 5 5 4 4 4 5 5 5 5 4 2 2
2 2 2 2 1 1 2 2 2 2 2 2 2 2 2 1 3 3 -1 0 -0 -0 2 3 4 4 5 4 4 4 7 5 5 4 4 4 4 4 5 6 5 6 5 4 2
1 2 3 3 2 2 2 2 2 2 2 3 3 2 2 1 8 1 -1 -1 -0 -0 3 4 5 6 6 6 4 6 4 4 4 4 4 5 4 5 4 4 3 4 3 4 3
2 2 3 3 3 2 2 2 2 3 3 3 3 2 2 3 4 -0 -2 -1 -0 1 3 4 5 5 7 6 5 5 5 4 4 4 4 4 5 5 4 3 2 3 4 4 3
3 3 3 3 3 3 3 2 3 3 3 3 2 2 2 6 1 -1 0 0 1 2 3 3 4 4 6 6 6 5 5 5 4 4 4 5 5 4 4 3 3 3 4 4 4
2 3 3 3 3 3 3 3 2 2 3 2 2 1 3 5 1 0 0 1 1 2 3 3 3 5 5 6 4 5 7 6 5 5 5 4 6 6 3 3 3 3 3 4 3
3 3 3 3 3 3 3 3 3 3 3 2 2 1 4 3 1 2 1 2 2 1 2 2 2 4 5 4 6 7 7 9 6 5 5 5 9 5 3 4 4 3 3 4 3
3 3 3 3 3 3 3 3 1 2 2 2 1 2 5 2 4 2 1 3 3 3 2 2 3 4 5 7 8 8 10 9 8 5 5 6 8 5 3 4 4 4 3 4 3
4 4 4 3 3 3 3 2 2 1 1 1 1 4 3 5 4 3 2 2 4 4 5 5 5 6 6 7 11 9 9 8 9 6 6 7 7 5 4 4 4 4 4 4 4
4 4 4 4 3 3 3 1 3 4 2 4 4 4 4 3 2 3 3 4 4 5 7 5 8 9 7 6 6 7 8 9 7 6 7 7 7 6 4 4 5 4 4 4 4
4 4 4 4 4 3 3 3 4 3 6 3 4 4 3 2 5 4 2 5 6 8 7 7 9 7 6 6 7 7 8 9 7 6 7 7 8 6 5 5 4 4 4 4 4
5 4 4 4 4 3 2 3 1 2 5 5 4 5 4 3 5 4 3 4 6 7 7 8 7 7 7 7 8 8 8 8 8 7 6 7 8 7 6 5 4 4 4 3 4
5 4 4 4 5 1 3 2 1 1 8 7 6 5 4 4 6 3 2 4 5 7 6 7 5 7 8 9 8 9 6 7 8 9 11 7 12 8 7 6 6 5 4 4 4
5 5 4 5 2 3 2 1 2 2 15 7 6 3 4 5 5 5 2 4 6 6 6 8 7 7 8 8 7 8 6 7 8 9 9 9 11 9 6 7 6 5 4 3 3
6 5 5 3 1 2 1 2 2 10 15 8 6 7 6 5 5 4 4 3 4 6 6 6 4 6 6 6 6 7 7 7 8 9 13 10 10 10 8 7 6 5 4 4 4
6 6 5 2 4 1 1 3 10 13 7 9 8 7 7 6 6 5 6 6 8 10 9 8 7 6 5 7 6 7 9 13 14 13 14 9 10 9 7 6 5 5 5 4 3
7 7 4 2 1 1 2 6 13 9 9 7 8 7 8 6 6 6 7 8 6 7 9 11 12 8 6 7 8 8 9 13 19 17 14 10 12 9 6 5 5 5 4 4 3
8 2 2 1 1 2 5 10 10 8 8 9 8 9 8 7 7 7 7 8 7 6 11 13 11 7 6 6 6 9 11 8 12 11 13 11 9 7 6 6 5 5 4 4 3
5 3 3 2 1 3 7 10 9 8 8 8 10 9 9 8 8 8 8 6 7 6 5 8 12 7 7 6 6 7 7 12 11 16 17 13 12 12 8 7 6 5 5 4 3
5 6 3 1 2 6 9 8 8 7 8 9 9 10 8 8 8 8 8 7 6 6 6 7 10 10 8 9 10 9 10 9 10 14 17 17 13 7 8 6 6 5 5 4 3
5 8 3 3 8 6 9 9 10 9 8 9 9 9 8 7 8 8 9 7 6 5 8 7 10 13 11 7 6 7 12 12 16 15 12 13 12 6 6 5 5 5 4 4 3
8 8 4 5 9 9 8 9 9 10 10 9 9 8 6 8 10 8 7 5 5 6 7 7 11 15 12 9 8 9 8 8 9 11 14 16 13 6 6 5 5 5 4 4 3
8 10 7 7 7 10 10 10 11 9 10 9 9 8 8 8 7 8 8 6 5 5 6 6 10 12 15 12 12 14 10 9 10 14 12 12 11 9 8 7 5 5 4 4 3
7 9 9 11 10 9 10 10 11 11 9 9 10 9 9 10 9 8 7 6 6 5 6 6 11 10 9 8 8 9 9 9 11 10 12 11 10 9 7 6 5 4 4 4 4
11 10 9 10 9 10 10 10 11 11 11 11 11 9 8 9 8 9 7 7 7 6 6 6 11 10 11 9 9 10 9 9 9 9 9 9 10 6 5 5 5 5 4 4 4
8 8 9 10 9 10 10 11 12 11 11 10 9 9 9 8 6 6 5 5 6 7 7 8 10 12 14 10 10 12 9 9 8 8 8 10 8 6 6 6 5 5 5 5 4